F4MNZ-13 Weather Reports


time (UTC)temp
C
wind
direction
speed
KPH
gust
KPH
rain 1hr
cm
rain 24hr
cm
rain mn
cm
humidity
%
barometer
mb
20260507161001 13 35 6.4 12.9 0.00 0.71 0.03 65 1016.8
20260507160501 13 24 3.2 12.9 0.00 0.71 0.03 64 1016.8
20260507155459 14 342 6.4 8.0 0.00 1.02 0.03 64 1016.8
20260507155000 14 9 3.2 8.0 0.00 1.02 0.03 64 1016.8
20260507154459 14 42 3.2 9.7 0.00 1.02 0.03 63 1016.9
20260507153958 14 48 3.2 9.7 0.00 1.02 0.03 62 1017.0
20260507153501 14 28 6.4 12.9 0.00 1.02 0.03 64 1017.1
20260507153002 14 73 3.2 16.1 0.00 1.02 0.03 60 1017.1
20260507152502 14 140 14.5 22.5 0.00 1.02 0.03 59 1017.0
20260507152002 15 107 6.4 22.5 0.00 1.02 0.03 59 1017.0
20260507151459 15 116 11.3 20.9 0.00 1.02 0.03 58 1017.0
20260507150958 16 114 6.4 16.1 0.00 1.02 0.03 59 1016.8
20260507150002 16 5 4.8 11.3 0.00 1.02 0.03 60 1016.8
20260507145500 16 17 6.4 12.9 0.00 1.12 0.03 63 1016.9
20260507145003 16 59 9.7 9.7 0.03 1.12 0.03 68 1017.0
20260507144501 16 35 1.6 1.6 0.03 1.12 0.03 73 1016.8
20260507144002 15 302 1.6 1.6 0.03 1.12 0.03 73 1016.8
20260507143501 15 276 0.0 1.6 0.03 1.12 0.03 73 1016.8
20260507143001 15 142 1.6 3.2 0.03 1.12 0.03 71 1016.9
20260507142500 15 132 0.0 4.8 0.03 1.12 0.03 71 1016.8
20260507142000 15 116 0.0 4.8 0.03 1.12 0.03 71 1016.9
20260507140500 15 104 0.0 6.4 0.03 1.12 0.03 69 1016.9
20260507140000 15 117 3.2 8.0 0.03 1.12 0.03 65 1016.9
20260507135503 15 30 4.8 9.7 0.03 1.12 0.03 65 1017.0
20260507135001 16 34 6.4 9.7 0.00 1.09 0.00 61 1016.9
20260507134458 16 355 1.6 8.0 0.00 1.09 0.00 61 1016.9
20260507133500 16 355 6.4 9.7 0.00 1.09 0.00 61 1017.0
20260507133000 16 16 4.8 9.7 0.00 1.09 0.00 59 1017.1
20260507132458 16 313 4.8 12.9 0.00 1.09 0.00 62 1017.1
20260507132002 16 355 12.9 12.9 0.00 1.09 0.00 61 1017.1
20260507131458 16 53 8.0 12.9 0.00 1.09 0.00 61 1017.2
20260507131000 16 323 3.2 16.1 0.00 1.09 0.00 65 1017.2
20260507130459 16 24 3.2 16.1 0.00 1.09 0.00 64 1017.3
20260507125459 16 34 6.4 9.7 0.00 1.09 0.00 60 1017.3
20260507124959 16 313 1.6 12.9 0.00 1.09 0.00 59 1017.2
20260507124502 16 269 1.6 12.9 0.00 1.09 0.00 59 1017.2
20260507124000 17 32 12.9 12.9 0.00 1.09 0.00 59 1017.3
20260507123501 17 35 8.0 12.9 0.00 1.09 0.00 61 1017.4
20260507123000 17 350 0.0 16.1 0.00 1.09 0.00 60 1017.3
20260507122505 17 49 11.3 12.9 0.00 1.09 0.00 63 1017.4
20260507121501 17 117 1.6 9.7 0.00 1.09 0.00 69 1017.5
20260507121001 16 32 6.4 12.9 0.00 1.09 0.00 63 1017.5
20260507120500 16 338 4.8 14.5 0.00 1.09 0.00 63 1017.7
20260507120003 16 360 4.8 17.7 0.00 1.09 0.00 60 1017.7
20260507115001 17 53 14.5 14.5 0.00 1.09 0.00 67 1017.9
20260507114002 16 221 1.6 11.3 0.00 1.09 0.00 63 1018.0
20260507113000 15 75 1.6 16.1 0.00 1.09 0.00 60 1018.1
20260507112500 16 51 11.3 16.1 0.00 1.09 0.00 62 1018.1
20260507111959 16 33 3.2 6.4 0.00 1.09 0.00 61 1018.1
20260507111503 16 259 3.2 11.3 0.00 1.09 0.00 58 1018.2
20260507110958 15 229 3.2 11.3 0.00 1.09 0.00 60 1018.2
20260507110459 15 303 4.8 8.0 0.00 1.09 0.00 59 1018.3
20260507110000 15 126 4.8 9.7 0.00 1.09 0.00 59 1018.3
20260507105459 15 223 4.8 6.4 0.00 1.09 0.00 61 1018.4
20260507105003 15 219 3.2 6.4 0.00 1.09 0.00 61 1018.4
20260507104459 15 186 0.0 8.0 0.00 1.09 0.00 54 1018.4
20260507104001 15 294 3.2 8.0 0.00 1.09 0.00 60 1018.4
20260507103000 15 355 1.6 9.7 0.00 1.09 0.00 69 1018.5
20260507102458 15 290 1.6 9.7 0.00 1.09 0.00 69 1018.5
20260507101500 15 24 8.0 14.5 0.00 1.09 0.00 67 1018.7
20260507100959 15 53 1.6 9.7 0.00 1.09 0.00 68 1018.6
20260507100500 14 86 6.4 9.7 0.00 1.09 0.00 70 1018.6
20260507095502 -17 0.0 0.0 0.00 1.09 0.00 1018.6
20260507094959 -17 0.0 0.0 0.00 1.09 0.00 1018.8
20260507094503 -17 0.0 0.0 0.00 1.09 0.00 1018.7
20260507094001 -17 0.0 0.0 0.00 1.09 0.00 1018.8
20260507093501 -17 0.0 0.0 0.00 1.09 0.00 1018.6
20260507093000 -17 0.0 0.0 0.00 1.09 0.00 1018.7
20260507092500 -17 0.0 0.0 0.00 1.09 0.00 1018.6
20260507092000 -17 0.0 0.0 0.00 1.09 0.00 1018.7
20260507091500 -17 0.0 0.0 0.00 1.09 0.00 1018.7
20260507091003 -17 0.0 0.0 0.00 1.09 0.00 1018.7
20260507085459 11 65 0.0 4.8 0.00 1.09 0.00 78 1018.7
20260507085002 11 355 3.2 4.8 0.00 1.09 0.00 79 1018.8
20260507083959 11 28 3.2 6.4 0.00 1.09 0.00 80 1018.8
20260507083000 11 65 1.6 4.8 0.00 1.09 0.00 82 1018.9
20260507082459 11 11 1.6 6.4 0.00 1.09 0.00 82 1018.8
20260507082004 10 46 3.2 6.4 0.00 1.09 0.00 83 1018.8
20260507081505 10 18 3.2 6.4 0.00 1.09 0.00 84 1018.8
20260507081003 10 41 1.6 4.8 0.00 1.09 0.00 82 1018.8
20260507080500 10 39 1.6 4.8 0.00 1.09 0.00 84 1018.9
20260507080002 10 45 3.2 6.4 0.00 1.09 0.00 85 1018.8
20260507075505 10 59 3.2 6.4 0.00 1.09 0.00 86 1018.8
20260507073959 9 28 3.2 8.0 0.00 1.09 0.00 86 1019.0
20260507073000 8 20 4.8 6.4 0.00 1.09 0.00 89 1019.0
20260507072501 8 53 1.6 6.4 0.00 1.09 0.00 88 1019.0
20260507072003 8 41 4.8 6.4 0.00 1.09 0.00 92 1019.0
20260507070958 7 202 0.0 3.2 0.00 1.09 0.00 92 1019.0
20260507065459 7 180 1.6 3.2 0.00 1.09 0.00 95 1019.0
20260507065006 7 71 1.6 3.2 0.00 1.09 0.00 95 1019.0
20260507064002 6 72 1.6 3.2 0.00 1.09 0.00 95 1018.9
20260507063458 6 218 1.6 3.2 0.00 1.09 0.00 95 1018.9
20260507062959 6 234 0.0 1.6 0.00 1.09 0.00 94 1018.9
20260507061959 6 233 1.6 3.2 0.00 1.09 0.00 95 1019.0
20260507061458 6 207 0.0 3.2 0.00 1.09 0.00 95 1018.9
20260507060958 6 207 0.0 1.6 0.00 1.09 0.00 95 1018.8
20260507060459 5 207 0.0 1.6 0.00 1.09 0.00 95 1018.9
20260507055957 5 207 0.0 4.8 0.00 1.09 0.00 95 1018.9
20260507055458 5 205 1.6 8.0 0.00 1.09 0.00 95 1018.9
20260507054958 5 200 6.4 8.0 0.00 1.09 0.00 95 1018.9
20260507054502 5 232 1.6 3.2 0.00 1.09 0.00 95 1018.8
20260507053959 5 232 3.2 3.2 0.00 1.09 0.00 95 1018.8
20260507053500 6 221 1.6 3.2 0.00 1.09 0.00 95 1018.8
20260507052958 6 221 0.0 3.2 0.00 1.09 0.00 95 1018.7
20260507052458 6 221 0.0 3.2 0.00 1.09 0.00 95 1018.7
20260507051958 6 221 0.0 3.2 0.00 1.09 0.00 95 1018.7
20260507051457 6 221 0.0 0.0 0.00 1.09 0.00 95 1018.6
20260507050457 6 221 0.0 3.2 0.00 1.09 0.00 95 1018.7
20260507045959 6 221 0.0 3.2 0.00 1.09 0.00 95 1018.6
20260507045458 6 221 1.6 3.2 0.00 1.09 0.00 95 1018.4
20260507044501 6 221 0.0 1.6 0.00 1.09 0.00 94 1018.5
20260507043958 6 221 0.0 0.0 0.00 1.09 0.00 95 1018.6
20260507043457 6 221 0.0 1.6 0.00 1.09 0.00 95 1018.5
20260507042958 6 221 0.0 1.6 0.00 1.09 0.00 95 1018.5
20260507042458 6 221 0.0 1.6 0.00 1.09 0.00 95 1018.5
20260507042002 6 221 0.0 3.2 0.00 1.09 0.00 95 1018.4
20260507040958 6 224 0.0 1.6 0.00 1.09 0.00 95 1018.6
20260507040457 6 224 1.6 1.6 0.00 1.09 0.00 95 1018.4
20260507040001 6 224 0.0 4.8 0.00 1.09 0.00 95 1018.4
20260507034500 6 215 1.6 6.4 0.00 1.09 0.00 95 1018.5
20260507034000 6 219 3.2 6.4 0.00 1.09 0.00 94 1018.5
20260507033502 6 202 3.2 3.2 0.00 1.09 0.00 94 1018.5
20260507032958 6 200 0.0 3.2 0.00 1.09 0.00 94 1018.6
20260507032501 6 200 0.0 3.2 0.00 1.09 0.00 94 1018.6
20260507032001 6 200 1.6 3.2 0.00 1.09 0.00 94 1018.7
20260507031000 6 200 1.6 1.6 0.00 1.09 0.00 94 1018.7
20260507030500 6 200 0.0 3.2 0.00 1.09 0.00 94 1018.7
20260507030000 7 200 1.6 3.2 0.00 1.09 0.00 94 1018.7
20260507025504 7 200 0.0 3.2 0.00 1.09 0.00 94 1018.7
20260507024459 7 200 0.0 1.6 0.00 1.09 0.00 94 1018.7
20260507023959 7 200 1.6 1.6 0.00 1.09 0.00 94 1018.7
20260507023503 7 200 0.0 1.6 0.00 1.09 0.00 95 1018.7
20260507022959 7 200 1.6 3.2 0.00 1.09 0.00 95 1018.8
20260507022501 7 200 1.6 3.2 0.00 1.09 0.00 95 1018.8
20260507022000 7 200 0.0 0.0 0.00 1.09 0.00 95 1018.8
20260507021458 7 200 0.0 0.0 0.00 1.09 0.00 95 1018.8
20260507020958 7 200 0.0 3.2 0.00 1.09 0.00 95 1018.9
20260507020458 7 200 0.0 3.2 0.00 1.09 0.00 95 1018.8
20260507015958 7 200 0.0 3.2 0.00 1.09 0.00 95 1018.8
20260507015458 7 200 0.0 0.0 0.00 1.09 0.00 95 1018.9
20260507014957 7 200 0.0 0.0 0.00 1.09 0.00 95 1018.9
20260507014457 7 200 0.0 1.6 0.00 1.09 0.00 94 1019.0
20260507013958 7 200 0.0 1.6 0.00 1.09 0.00 94 1019.0
20260507013457 7 200 0.0 0.0 0.00 1.09 0.00 94 1019.0
20260507012957 7 200 0.0 0.0 0.00 1.09 0.00 94 1019.1
20260507012457 7 200 0.0 0.0 0.00 1.09 0.00 94 1019.1
20260507011958 7 200 0.0 1.6 0.00 1.09 0.00 94 1019.1
20260507011457 7 200 0.0 1.6 0.00 1.09 0.00 94 1019.1
20260507010458 7 200 0.0 0.0 0.00 1.09 0.00 94 1019.1
20260507005959 7 200 0.0 0.0 0.00 1.09 0.00 94 1019.1
20260507005457 7 200 0.0 0.0 0.00 1.09 0.00 94 1019.2
20260507004958 7 200 0.0 0.0 0.00 1.09 0.00 94 1019.3
20260507004457 7 200 0.0 0.0 0.00 1.09 0.00 94 1019.3
20260507003957 7 200 0.0 0.0 0.00 1.09 0.00 94 1019.4
20260507003459 7 200 0.0 0.0 0.00 1.09 0.00 94 1019.4
20260507002958 7 200 0.0 3.2 0.00 1.09 0.00 94 1019.4
20260507002458 7 200 0.0 3.2 0.00 1.09 0.00 94 1019.4
20260507001958 7 200 0.0 3.2 0.00 1.09 0.00 94 1019.5
20260507001459 7 200 0.0 3.2 0.00 1.09 0.00 94 1019.7
20260507000958 7 200 0.0 3.2 0.00 1.09 0.00 93 1019.6
20260507000458 7 200 0.0 3.2 0.00 1.09 0.00 93 1019.7
20260506235959 7 200 0.0 0.0 0.00 1.09 0.00 93 1019.7
20260506235458 7 200 0.0 3.2 0.00 1.09 0.00 93 1019.7
20260506234001 8 209 1.6 3.2 0.00 1.09 0.00 92 1019.6
20260506233502 8 233 1.6 3.2 0.00 1.09 0.00 92 1019.6
20260506232959 8 233 0.0 3.2 0.00 1.09 0.00 92 1019.7
20260506232458 8 233 1.6 3.2 0.00 1.09 0.00 93 1019.7
20260506231958 8 233 0.0 3.2 0.00 1.09 0.00 93 1019.7
20260506230958 8 212 0.0 3.2 0.00 1.09 0.00 93 1019.8
20260506230459 8 204 0.0 4.8 0.00 1.09 0.00 92 1019.8
20260506230001 8 211 3.2 4.8 0.00 1.09 0.00 93 1019.8
20260506225500 8 192 0.0 4.8 0.00 1.09 0.00 93 1019.8
20260506225001 8 220 1.6 3.2 0.00 1.09 0.00 93 1019.8
20260506224502 8 221 1.6 3.2 0.00 1.09 0.00 92 1019.8
20260506224004 8 226 1.6 4.8 0.00 1.09 0.00 92 1019.7
20260506223501 8 258 0.0 9.7 0.00 1.09 0.00 92 1019.8
20260506223001 8 242 1.6 9.7 0.00 1.09 0.00 93 1019.8
20260506222501 8 235 3.2 6.4 0.00 1.09 0.00 94 1019.8
20260506222001 7 229 3.2 6.4 0.00 1.09 0.00 95 1019.8
20260506221502 7 206 3.2 3.2 0.00 1.09 0.00 95 1019.8
20260506221001 7 213 0.0 1.6 0.00 1.09 0.00 95 1019.9
20260506220500 7 213 0.0 1.6 0.00 1.09 0.00 95 1019.8
20260506220000 7 213 1.6 1.6 0.00 1.09 1.09 95 1019.8
20260506215500 7 213 1.6 4.8 0.00 1.09 1.09 95 1019.8
20260506214959 7 213 3.2 4.8 0.00 1.09 1.09 94 1019.8
20260506213959 7 208 0.0 3.2 0.00 1.09 1.09 94 1019.8
20260506213459 7 207 0.0 4.8 0.00 1.09 1.09 94 1019.8
20260506213000 7 213 1.6 4.8 0.00 1.09 1.09 94 1019.8
20260506212500 7 213 3.2 3.2 0.00 1.09 1.09 94 1019.9
20260506212000 7 211 1.6 3.2 0.00 1.09 1.09 94 1019.9
20260506211500 8 211 0.0 3.2 0.00 1.09 1.09 94 1019.9
20260506210500 8 211 0.0 3.2 0.00 1.09 1.09 94 1019.8
20260506205959 8 211 0.0 3.2 0.00 1.09 1.09 94 1019.9
20260506203959 8 214 1.6 1.6 0.00 1.09 1.09 94 1019.8
20260506203501 8 214 0.0 3.2 0.00 1.09 1.09 94 1019.7
20260506203001 8 214 0.0 3.2 0.00 1.09 1.09 94 1019.7
20260506202500 8 214 0.0 3.2 0.00 1.09 1.09 94 1019.6
20260506202002 8 214 0.0 1.6 0.00 1.09 1.09 94 1019.6
20260506201501 8 214 0.0 3.2 0.00 1.09 1.09 94 1019.6
20260506200959 8 214 0.0 3.2 0.03 1.09 1.09 94 1019.5
20260506200459 8 214 0.0 3.2 0.03 1.09 1.09 94 1019.4
20260506200001 8 214 0.0 4.8 0.03 1.09 1.09 94 1019.4
20260506195501 8 227 3.2 4.8 0.03 1.09 1.09 94 1019.3
20260506194501 8 217 1.6 3.2 0.03 1.09 1.09 93 1019.1
20260506193502 8 220 0.0 3.2 0.03 1.09 1.09 93 1018.9
20260506193000 8 220 0.0 3.2 0.03 1.09 1.09 93 1018.8
20260506192501 8 220 0.0 0.0 0.03 1.09 1.09 93 1018.8
20260506192001 8 220 0.0 0.0 0.03 1.09 1.09 93 1018.8
20260506191501 8 220 0.0 1.6 0.03 1.09 1.09 93 1018.8
20260506190503 8 220 1.6 3.2 0.00 1.09 1.09 93 1018.7
20260506190002 8 209 1.6 4.8 0.00 1.09 1.09 92 1018.7
20260506185459 8 219 4.8 6.4 0.00 1.09 1.09 92 1018.6
20260506184959 8 205 1.6 6.4 0.00 1.09 1.09 92 1018.6
20260506184459 8 195 4.8 6.4 0.00 1.09 1.09 92 1018.6
20260506184000 8 217 3.2 8.0 0.03 1.09 1.09 92 1018.6
20260506183501 8 202 3.2 11.3 0.03 1.09 1.09 92 1018.6
20260506182959 8 175 4.8 9.7 0.05 1.09 1.09 92 1018.4
20260506182459 8 203 3.2 8.0 0.05 1.09 1.09 92 1018.4
20260506182000 8 169 8.0 8.0 0.08 1.09 1.09 92 1018.4
20260506181459 8 194 3.2 8.0 0.13 1.09 1.09 92 1018.3
20260506180959 8 192 3.2 8.0 0.15 1.09 1.09 91 1018.2
20260506180500 9 211 3.2 4.8 0.18 1.09 1.09 92 1018.1
20260506175959 9 192 3.2 6.4 0.23 1.09 1.09 91 1018.1
20260506175459 9 207 1.6 6.4 0.23 1.09 1.09 91 1018.0
20260506174959 9 182 1.6 4.8 0.28 1.09 1.09 92 1018.0
20260506174000 9 244 1.6 8.0 0.36 1.07 1.07 91 1018.0
20260506173459 9 169 1.6 8.0 0.43 1.07 1.07 91 1017.9
20260506171959 9 229 1.6 6.4 0.51 0.99 0.99 91 1017.8
20260506171500 9 186 4.8 6.4 0.51 0.97 0.97 91 1017.8
20260506170959 9 175 1.6 4.8 0.48 0.91 0.91 90 1017.7
20260506165959 9 194 1.6 8.0 0.46 0.86 0.86 90 1017.8
20260506165458 9 184 1.6 8.0 0.46 0.84 0.84 90 1017.7
20260506165001 9 195 4.8 8.0 0.43 0.79 0.79 90 1017.7
20260506164002 9 136 6.4 11.3 0.43 0.71 0.71 90 1017.7
20260506163500 9 176 3.2 11.3 0.43 0.61 0.61 89 1017.7
20260506163006 10 242 1.6 3.2 0.38 0.56 0.56 89 1017.6
20260506162500 10 190 1.6 4.8 0.36 0.51 0.51 89 1017.5
20260506161500 10 202 1.6 8.0 0.33 0.46 0.46 88 1017.5